Regional Weather Roundup
Issued by NWS Boston, MA

Current Version | Previous Version | Text Only | Print | Product List | Glossary Off
Versions: 1 2 3 4 5 6 7 8 9 10 11 12 13 14 15 16 17 18 19 20 21 22 23 24 25 26 27 28 29 30 31 32 33 34 35 36 37 38 39 40 41 42 43 44 45 46 47 48 49 50
000 ASUS41 KBOX 300310 RWRBOX REGIONAL WEATHER ROUNDUP NATIONAL WEATHER SERVICE TAUNTON MA 1100 PM EDT SAT APR 29 2017 NOTE: "FAIR" INDICATES FEW OR NO CLOUDS BELOW 12,000 FEET WITH NO SIGNIFICANT WEATHER AND/OR OBSTRUCTIONS TO VISIBILITY. MAZALL-300400- EASTERN MASSACHUSETTS CITY SKY/WX TMP DP RH WIND PRES REMARKS BOSTON PTCLDY 68 42 38 W15 30.01R BEVERLY CLEAR 66 45 46 W12 29.99R LAWRENCE CLEAR 66 46 48 W8 30.01R BEDFORD CLEAR 64 37 36 W8 30.00R BLUE HILL N/A 64 43 46 NW15G24 30.01R NORWOOD PTCLDY 67 47 48 W9 30.00R MARSHFIELD CLOUDY 68 46 45 VRB7G15 29.99R PLYMOUTH CLOUDY 68 48 48 W14 30.01R TAUNTON CLOUDY 68 47 46 W10G16 30.01R NEW BEDFORD CLOUDY 68 49 50 W16 30.01R $$ MAZALL-300400- CAPE COD AND THE ISLANDS CITY SKY/WX TMP DP RH WIND PRES REMARKS FALMOUTH CLOUDY 68 52 56 MISG 30.02R HYANNIS CLOUDY 70 53 54 W12 29.98R CHATHAM CLOUDY 71 52 50 W9G16 29.99R PROVINCETOWN CLOUDY 57 48 72 W13 29.99R NANTUCKET CLOUDY 62 52 69 W13 30.01R MARTHAS VNYRD CLOUDY 70 52 52 NW8G18 30.02R $$ MAZALL-300400- CENTRAL AND WESTERN MASSACHUSETTS CITY SKY/WX TMP DP RH WIND PRES REMARKS WORCESTER CLEAR 61 37 41 W13 30.05R FITCHBURG CLEAR 64 41 42 W10 30.04R ORANGE CLEAR 60 40 47 W9 30.06R SPRINGFIELD PTCLDY 62 37 38 W15 30.05S WESTFIELD CLEAR 62 40 44 NW9 30.07R NORTH ADAMS CLEAR 54 37 52 W13G18 30.11R PITTSFIELD CLEAR 53 35 50 NW20G30 30.12R $$ RIZALL-300400- RHODE ISLAND CITY SKY/WX TMP DP RH WIND PRES REMARKS PROVIDENCE CLOUDY 68 47 46 W12G24 30.03F NEWPORT CLOUDY 67 50 54 NW14G21 30.04R BLOCK ISLAND PTCLDY 65 53 65 NW8G17 30.07R SMITHFIELD PTCLDY 64 45 49 W7G18 30.04S WESTERLY CLEAR 69 51 52 VRB6 30.07R $$ CTZALL-300400- CONNECTICUT CITY SKY/WX TMP DP RH WIND PRES REMARKS BRADLEY INTL PTCLDY 64 43 46 W14 30.06F HARTFORD CLEAR 67 48 50 W5 30.07F BRIDGEPORT CLEAR 70 54 56 N3 30.08R DANBURY CLEAR 64 52 64 N6 30.12R GROTON CLEAR 67 52 58 N7 30.05R NEW HAVEN CLEAR 68 52 56 NW6 30.08S CHESTER FAIR 66 52 59 NW6 30.08S MERIDEN CLEAR 67 51 56 NW6 30.09R WILLIMANTIC PTCLDY 67 46 47 VRB7 30.07S OXFORD CLOUDY 63 46 55 NW3 30.11R $$ MEZ002-015-021-024-NHZ003-005-008-011-012-014-VTZ005-008-300400- NORTHERN NEW ENGLAND CITY SKY/WX TMP DP RH WIND PRES REMARKS PORTLAND ME CLOUDY 63 40 42 N13 29.97R BANGOR ME PTCLDY 52 31 44 NW24 29.99R CONCORD NH CLEAR 61 39 44 N10G21 30.01R MANCHESTER NH CLEAR 65 39 38 W10 29.98R NASHUA NH CLEAR 64 43 46 W9 N/A PORTSMOUTH NH PTCLDY 65 46 51 W7 29.97R JAFFREY NH CLEAR 59 43 55 W3 30.05R KEENE NH CLEAR 60 42 51 W6 30.05R BURLINGTON VT CLEAR 48 28 46 N14 30.18R MT. WASHINGTON FOG 23 23 100 NW78 N/A VSB 1/16WCI -2 $$ NYZ052-076-300400- EASTERN NEW YORK CITY SKY/WX TMP DP RH WIND PRES REMARKS ALBANY CLEAR 54 34 46 W18 30.16R NEW YORK CITY CLOUDY 73 55 53 N16 30.08R $$ ANZALL-300400- MARINE OBSERVATIONS STATION/POSITION TIME TEMP WIND PRES VSBY WAVE AIR SEA DIR/SP/G HT/PER (UTC) (F) (DEG/KT/KT) (MB) (MI) (FT/S) BOSTON BUOY 0150 59 49 280/ 14/ 16 1014.1 2/ 9 BUZZARDS BAY 0200 310/ 22/ 23 1017.1R NANTUCKET SOUND 0250 49 1015.7R 1/ 3 MASS BAY-STELLWA 0204 58 48 270/ 14/ 14 1013.7R 3/ 8 ISLE OF SHOALS 0200 69 270/ 20/ 23 1013.4R S OF BLOCK IS 0255 48 N/A 5/ 7 $$ ......................KEY......................... SKY/WX - SKY CONDITION/PRESENT WEATHER TMP - TEMPERATURE IN FAHRENHEIT DWPT - DEWPOINT IN FAHRENHEIT RH - RELATIVE HUMIDITY IN PERCENT WIND - DIRECTION AND SPEED IN MPH PRES - MEAN SEA LEVEL PRESSURE IN INCHES OF HG WCI - WIND CHILL INDEX VSB - VISIBILITY IN MILES HX - HEAT INDEX TC - TEMPERATURE IN CELSIUS VRB - VARIABLE WIND DIRECTION N/A - NOT AVAILABLE

USA.gov is the U.S. government's official web portal to all federal, state and local government web resources and services.